Location: Unspecified
(0.0000°N, 0.0000°E)
Time: 14:48:25
(UTC+01:00)

Envisat - Pass Details

Date: 26 October 2021
Orbit: 764 x 766 km, 98.2° (Epoch: 29 November)

Event Time Altitude Azimuth Distance (km) Brightness Sun altitude
Rises 06:55:29 0° 4° (N) 3,212 6.1 -11.8°
Reaches altitude 10° 06:57:48 10° 0° (N) 2,289 5.3 -11.3°
Maximum altitude 07:02:45 58° 282° (WNW) 888 3.0 -10.1°
Drops below altitude 10° 07:07:43 10° 203° (SSW) 2,298 5.4 -8.9°
Sets 07:10:04 0° 199° (SSW) 3,226 6.2 -8.3°
